QPF
0.00 0.00 0.00 0.00 0.00 0.00 0.00 0.00 0.00 0.00 0.00 0.00 0.00 0.00 0.00 0.00 0.00 0.00 0.00 0.00 0.00 0.00 0.00 0.00 0.00 0.00 0.00 0.00 0.00 0.00 0.00 0.00 0.00 0.00 0.00 0.00 0.00 0.00 0.00 0.00 0.00 0.00 0.00 0.00
0.00 0.00 0.00 0.00 0.00 0.00 0.00 0.00 0.00 0.00 0.00 0.00 0.00 0.00 0.00 0.00 0.00 0.00 0.00 0.00 0.00 0.00 0.00 0.00 0.00 0.00 0.00 0.00 0.00 0.00 0.00 0.00 0.00 0.00 0.00 0.00 0.00 0.00 0.00 0.00 0.00 0.00 0.00 0.00
0.00 0.00 0.00 0.00 0.00 0.00 0.00 0.00 0.00 0.00 0.00 0.00 0.00 0.00 0.00 0.00 0.00 0.00 0.00 0.00 0.00 0.00 0.00 0.00 0.00 0.00 0.00 0.00 0.00 0.00 0.00 0.00 0.00 0.00 0.00 0.00 0.00 0.00 0.00 0.00 0.00 0.00 0.00 0.00
0.00 0.00 0.00 0.00 0.00 0.00 0.00 0.00 0.00 0.00 0.00 0.00 0.00 0.00 0.00 0.00 0.00 0.00 0.00 0.00 0.00 0.00 0.00 0.00 0.00 0.00 0.00 0.00 0.00 0.00 0.00 0.00 0.00 0.00 0.00 0.00 0.00 0.00 0.00 0.00 0.00 0.00 0.00 0.01
0.00 0.00 0.00 0.00 0.00 0.00 0.00 0.00 0.00 0.00 0.00 0.00 0.00 0.00 0.00 0.00 0.00 0.00 0.00 0.00 0.00 0.00 0.00 0.00 0.00 0.00 0.00 0.00 0.00 0.00 0.00 0.00 0.00 0.00 0.00 0.00 0.00 0.00 0.00 0.00 0.00 0.00 0.00 0.00
0.00 0.00 0.00 0.00 0.00 0.00 0.00 0.00 0.00 0.00 0.00 0.00 0.00 0.00 0.00 0.00 0.00 0.00 0.00 0.00 0.00 0.00 0.00 0.00 0.00 0.00 0.00 0.00 0.00 0.00 0.00 0.00 0.00 0.00 0.00 0.00 0.00 0.00 0.00 0.00 0.00 0.00 0.00 0.00
0.00 0.00 0.00 0.00 0.00 0.00 0.00 0.00 0.00 0.00 0.00 0.00 0.00 0.00 0.00 0.00 0.00 0.00 0.00 0.00 0.00 0.00 0.00 0.00 0.00 0.00 0.00 0.00 0.00 0.00 0.00 0.00 0.00 0.00 0.00 0.00 0.00 0.00 0.00 0.00 0.00 0.00 0.00 0.00
0.00 0.00 0.00 0.00 0.00 0.00 0.00 0.00 0.00 0.00 0.00 0.00 0.00 0.00 0.00 0.00 0.00 0.00 0.00 0.00 0.00 0.00 0.00 0.00 0.00 0.00 0.00 0.00 0.00 0.00 0.00 0.00 0.00 0.00 0.00 0.00 0.00 0.00 0.00 0.00 0.00 0.00 0.00 0.00
0.00 0.00 0.00 0.00 0.00 0.00 0.00 0.00 0.00 0.00 0.00 0.00 0.00 0.00 0.00 0.00 0.00 0.00 0.00 0.00 0.00 0.00 0.00 0.00 0.00 0.00 0.00 0.00 0.00 0.00 0.00 0.00 0.00 0.00 0.00 0.00 0.00 0.00 0.00 0.00 0.00 0.00 0.00 0.00
0.00 0.00 0.00 0.00 0.00 0.00 0.00 0.00 0.00 0.00 0.00 0.00 0.00 0.00 0.00 0.00 0.00 0.00 0.00 0.00 0.00 0.00 0.00 0.00 0.00 0.00 0.00 0.00 0.00 0.00 0.00 0.00 0.00 0.00 0.00 0.00 0.00 0.00 0.00 0.00 0.00 0.00 0.00 0.00
0.00 0.00 0.00 0.00 0.00 0.00 0.00 0.00 0.00 0.00 0.00 0.00 0.00 0.00 0.00 0.00 0.00 0.00 0.00 0.00 0.00 0.00 0.00 0.00 0.00 0.00 0.00 0.00 0.00 0.00 0.00 0.00 0.00 0.00 0.00 0.00 0.00 0.00 0.00 0.00 0.00 0.00 0.00 0.00
0.00 0.00 0.00 0.00 0.00 0.00 0.00 0.00 0.00 0.00 0.00 0.00 0.00 0.00 0.00 0.00 0.00 0.00 0.00 0.00 0.00 0.00 0.00 0.00 0.00 0.00 0.00 0.00 0.00 0.00 0.00 0.00 0.00 0.00 0.00 0.00 0.00 0.00 0.00 0.00 0.00 0.00 0.00 0.00
0.00 0.00 0.00 0.00 0.00 0.00 0.00 0.00 0.00 0.00 0.00 0.00 0.00 0.00 0.00 0.00 0.00 0.00 0.00 0.00 0.00 0.00 0.00 0.00 0.00 0.00 0.00 0.00 0.00 0.00 0.00 0.00 0.00 0.00 0.00 0.00 0.00 0.00 0.00 0.00 0.00 0.00 0.00 0.00
0.00 0.00 0.00 0.00 0.00 0.00 0.00 0.00 0.00 0.00 0.00 0.00 0.00 0.00 0.00 0.00 0.00 0.00 0.00 0.00 0.00 0.00 0.00 0.00 0.00 0.00 0.00 0.00 0.00 0.00 0.00 0.00 0.00 0.00 0.00 0.00 0.00 0.00 0.00 0.00 0.00 0.00 0.00 0.00
0.00 0.00 0.00 0.00 0.00 0.00 0.00 0.00 0.00 0.00 0.00 0.00 0.00 0.00 0.00 0.00 0.00 0.00 0.00 0.00 0.00 0.00 0.00 0.00 0.00 0.00 0.00 0.00 0.00 0.00 0.00 0.00 0.00 0.00 0.00 0.00 0.00 0.00 0.00 0.00 0.00 0.00 0.00 0.00
0.00 0.00 0.00 0.00 0.00 0.00 0.00 0.00 0.00 0.00 0.00 0.00 0.00 0.00 0.00 0.00 0.00 0.00 0.00 0.00 0.00 0.00 0.00 0.00 0.00 0.00 0.00 0.00 0.00 0.00 0.00 0.00 0.00 0.00 0.00 0.00 0.00 0.00 0.00 0.00 0.00 0.00 0.00 0.00
0.00 0.00 0.00 0.00 0.00 0.00 0.00 0.00 0.00 0.00 0.00 0.00 0.00 0.00 0.00 0.00 0.00 0.00 0.00 0.00 0.00 0.00 0.00 0.00 0.00 0.00 0.00 0.00 0.00 0.00 0.00 0.00 0.00 0.00 0.00 0.00 0.00 0.00 0.00 0.00 0.00 0.00 0.00 0.00
0.00 0.00 0.00 0.00 0.00 0.00 0.00 0.00 0.00 0.00 0.00 0.00 0.00 0.00 0.00 0.00 0.00 0.00 0.00 0.00 0.00 0.00 0.00 0.00 0.00 0.00 0.00 0.00 0.00 0.00 0.00 0.00 0.00 0.00 0.00 0.00 0.00 0.00 0.00 0.00 0.00 0.00 0.00 0.00
0.00 0.00 0.00 0.00 0.00 0.00 0.00 0.00 0.00 0.00 0.00 0.00 0.00 0.00 0.00 0.00 0.00 0.00 0.00 0.00 0.00 0.00 0.00 0.00 0.00 0.00 0.00 0.00 0.00 0.00 0.00 0.00 0.00 0.00 0.00 0.00 0.00 0.00 0.00 0.00 0.00 0.00 0.00 0.00
0.00 0.00 0.00 0.00 0.00 0.00 0.00 0.00 0.00 0.00 0.00 0.00 0.00 0.00 0.00 0.00 0.00 0.00 0.00 0.00 0.00 0.00 0.00 0.00 0.00 0.00 0.00 0.00 0.00 0.00 0.00 0.00 0.00 0.00 0.00 0.00 0.00 0.00 0.00 0.00 0.00 0.00 0.00 0.00
0.00 0.00 0.00 0.00 0.00 0.00 0.00 0.00 0.00 0.00 0.00 0.00 0.00 0.00 0.00 0.00 0.00 0.00 0.00 0.00 0.00 0.00 0.00 0.00 0.00 0.00 0.00 0.00 0.00 0.00 0.00 0.00 0.00 0.00 0.00 0.00 0.00 0.00 0.00 0.00 0.00 0.00 0.00 0.00
0.00 0.00 0.00 0.00 0.00 0.00 0.00 0.00 0.00 0.00 0.00 0.00 0.00 0.00 0.00 0.00 0.00 0.00 0.00 0.00 0.00 0.00 0.00 0.00 0.00 0.00 0.00 0.00 0.00 0.00 0.00 0.00 0.00 0.00 0.00 0.00 0.00 0.00 0.00 0.00 0.00 0.00 0.00 0.00
0.00 0.00 0.00 0.00 0.00 0.00 0.00 0.00 0.00 0.00 0.00 0.00 0.00 0.00 0.00 0.00 0.00 0.00 0.00 0.00 0.00 0.00 0.00 0.00 0.00 0.00 0.00 0.00 0.00 0.00 0.00 0.00 0.00 0.00 0.00 0.00 0.00 0.00 0.00 0.00 0.00 0.00 0.00 0.00
0.00 0.00 0.00 0.00 0.00 0.00 0.00 0.00 0.00 0.00 0.00 0.00 0.00 0.00 0.00 0.00 0.00 0.00 0.00 0.00 0.00 0.00 0.00 0.00 0.00 0.00 0.00 0.00 0.00 0.00 0.00 0.00 0.00 0.00 0.00 0.00 0.00 0.00 0.00 0.00 0.00 0.00 0.00 0.00
0.00 0.00 0.00 0.00 0.00 0.00 0.00 0.00 0.00 0.00 0.00 0.00 0.00 0.00 0.00 0.00 0.00 0.00 0.00 0.00 0.00 0.00 0.00 0.00 0.00 0.00 0.00 0.00 0.00 0.00 0.00 0.00 0.00 0.00 0.00 0.00 0.00 0.00 0.00 0.00 0.00 0.00 0.00 0.00
0.00 0.00 0.00 0.00 0.00 0.00 0.00 0.00 0.00 0.00 0.00 0.00 0.00 0.00 0.00 0.00 0.00 0.00 0.00 0.00 0.00 0.00 0.00 0.00 0.00 0.00 0.00 0.00 0.00 0.00 0.00 0.00 0.00 0.00 0.00 0.00 0.00 0.00 0.00 0.00 0.00 0.00 0.00 0.00
0.00 0.00 0.00 0.00 0.00 0.00 0.00 0.00 0.00 0.00 0.00 0.00 0.00 0.00 0.00 0.00 0.00 0.00 0.00 0.00 0.00 0.00 0.00 0.00 0.00 0.00 0.00 0.00 0.00 0.00 0.00 0.00 0.00 0.00 0.00 0.00 0.00 0.00 0.00 0.00 0.00 0.00 0.00 0.00
MSLP
1033.14 1033.18 1033.66 1034.22 1034.46 1034.81 1035.37 1035.78 1035.75 1034.83 1034.67 1033.84 1033.49 1033.33 1032.83 1032.29 1031.45 1030.81 1029.96 1029.31 1028.68 1028.01 1027.26 1026.47 1025.75 1025.00 1024.23 1023.38 1022.49 1021.58 1020.41 1019.66 1018.87 1018.00 1017.02 1016.04 1015.58 1014.91 1014.29 1013.48 1012.45 1011.61 1010.71 1010.44
1032.79 1032.96 1033.48 1033.90 1034.10 1034.42 1034.80 1035.57 1035.53 1034.95 1034.28 1033.44 1033.12 1032.81 1032.57 1031.93 1031.37 1030.79 1030.09 1029.39 1028.73 1028.04 1027.32 1026.53 1025.83 1025.11 1024.33 1023.54 1022.63 1021.61 1020.54 1019.76 1019.10 1018.21 1017.06 1016.30 1015.91 1015.16 1014.36 1013.23 1012.44 1011.58 1010.75 1010.19
1032.78 1033.46 1033.84 1033.67 1033.23 1033.63 1033.88 1034.22 1034.43 1034.06 1033.25 1033.23 1032.81 1032.39 1031.98 1031.50 1031.06 1030.50 1029.95 1029.32 1028.64 1027.91 1027.21 1026.54 1025.86 1025.24 1024.40 1023.58 1022.54 1021.55 1020.87 1020.03 1019.43 1018.58 1017.41 1016.73 1016.28 1015.61 1014.73 1013.54 1012.46 1011.55 1010.98 1010.39
1033.19 1033.57 1033.36 1032.57 1032.81 1033.06 1033.15 1032.85 1033.27 1033.01 1032.61 1032.50 1032.26 1031.95 1031.34 1030.81 1030.47 1029.99 1029.57 1029.04 1028.49 1027.75 1027.11 1026.48 1025.83 1025.21 1024.55 1023.75 1022.99 1022.06 1021.12 1020.54 1019.89 1018.93 1017.91 1017.08 1016.73 1016.17 1015.24 1014.07 1012.97 1011.81 1011.15 1010.82
1033.74 1033.48 1032.59 1032.07 1032.37 1032.65 1032.70 1031.75 1031.75 1031.78 1031.61 1031.64 1031.52 1031.18 1030.31 1030.09 1029.78 1029.50 1029.13 1028.71 1028.23 1027.73 1027.14 1026.50 1025.85 1025.27 1024.61 1023.83 1023.21 1022.53 1021.79 1020.86 1020.10 1019.52 1018.58 1017.71 1017.16 1016.70 1015.85 1014.67 1013.38 1012.37 1011.75 1011.35
1033.91 1033.69 1032.64 1031.82 1031.99 1032.13 1032.20 1031.17 1031.01 1031.19 1031.11 1031.02 1031.03 1030.33 1029.58 1029.57 1029.46 1029.11 1028.77 1028.41 1028.06 1027.60 1027.07 1026.56 1025.97 1025.43 1024.75 1024.11 1023.50 1022.87 1022.08 1021.26 1020.58 1019.93 1019.14 1018.13 1017.75 1017.15 1016.30 1015.34 1014.04 1013.25 1012.44 1012.00
1033.42 1033.37 1032.23 1031.51 1031.63 1031.78 1031.42 1031.00 1030.48 1030.56 1030.42 1030.46 1030.38 1030.05 1029.41 1029.16 1028.94 1028.82 1028.61 1028.35 1028.08 1027.58 1027.05 1026.61 1026.15 1025.67 1024.98 1024.39 1023.78 1023.11 1022.34 1021.54 1020.63 1019.84 1019.26 1018.50 1017.92 1017.30 1016.44 1015.73 1014.75 1013.90 1013.23 1012.56
1033.03 1032.80 1031.47 1030.88 1031.07 1031.07 1030.26 1030.00 1029.91 1029.89 1029.89 1029.84 1029.76 1029.50 1029.15 1028.87 1028.76 1028.75 1028.59 1028.34 1028.05 1027.58 1027.12 1026.71 1026.34 1025.81 1025.20 1024.55 1023.90 1023.11 1022.26 1021.33 1020.49 1019.82 1019.16 1018.37 1017.59 1017.25 1016.58 1015.96 1015.36 1014.55 1013.89 1013.23
1031.68 1030.13 1029.90 1029.95 1029.76 1029.66 1029.68 1029.62 1029.35 1029.55 1029.54 1029.50 1029.38 1029.21 1029.05 1028.91 1028.92 1028.87 1028.73 1028.46 1028.17 1027.82 1027.33 1026.84 1026.44 1026.00 1025.42 1024.89 1024.13 1023.18 1022.19 1021.35 1020.64 1019.92 1019.14 1018.41 1017.72 1017.31 1017.04 1016.46 1016.07 1015.30 1014.59 1013.70
1030.67 1028.81 1028.97 1029.06 1029.09 1029.23 1029.20 1029.18 1029.21 1029.28 1029.35 1029.46 1029.45 1029.26 1029.19 1029.13 1029.10 1029.00 1028.82 1028.57 1028.34 1028.02 1027.55 1027.03 1026.66 1026.20 1025.75 1025.08 1024.43 1023.69 1022.72 1021.82 1021.13 1020.36 1019.62 1018.84 1018.26 1017.67 1017.53 1017.13 1016.52 1015.81 1014.62 1013.90
1028.93 1028.35 1028.40 1028.32 1028.40 1028.68 1028.78 1028.89 1028.90 1029.06 1029.25 1029.45 1029.54 1029.51 1029.55 1029.48 1029.45 1029.28 1029.01 1028.87 1028.65 1028.26 1027.91 1027.52 1027.05 1026.50 1026.10 1025.59 1024.88 1024.04 1023.22 1022.41 1021.62 1020.95 1020.29 1019.55 1018.97 1018.75 1018.30 1017.68 1017.38 1016.24 1015.42 1014.89
1027.08 1026.95 1027.26 1027.66 1027.99 1028.25 1028.45 1028.61 1028.78 1029.00 1029.14 1029.46 1029.74 1029.84 1029.90 1029.83 1029.80 1029.60 1029.37 1029.13 1028.82 1028.49 1028.18 1027.90 1027.47 1026.92 1026.49 1025.99 1025.37 1024.60 1023.78 1022.96 1022.27 1021.71 1020.82 1020.11 1019.44 1018.71 1018.33 1017.86 1017.11 1016.52 1016.15 1015.78
1026.32 1026.63 1026.93 1027.34 1027.76 1027.98 1028.13 1028.39 1028.76 1029.07 1029.36 1029.56 1029.84 1030.04 1030.15 1030.10 1030.03 1029.98 1029.76 1029.45 1029.04 1028.80 1028.68 1028.34 1027.85 1027.34 1026.99 1026.45 1025.66 1024.97 1024.33 1023.59 1022.85 1022.01 1021.36 1020.58 1019.69 1018.87 1017.88 1017.31 1017.02 1016.65 1016.24 1015.56
1026.40 1026.57 1026.97 1027.18 1027.27 1027.65 1028.05 1028.37 1028.77 1029.14 1029.43 1029.75 1029.93 1030.05 1030.11 1030.18 1030.22 1030.14 1029.96 1029.79 1029.54 1029.21 1028.94 1028.58 1028.19 1027.76 1027.37 1026.74 1025.99 1025.25 1024.55 1023.96 1023.14 1022.41 1021.74 1020.87 1019.94 1019.20 1018.53 1017.90 1017.25 1016.77 1016.31 1015.97
1025.85 1026.10 1026.13 1026.61 1027.16 1027.60 1028.02 1028.33 1028.58 1028.90 1029.34 1029.71 1030.06 1030.17 1030.22 1030.26 1030.36 1030.41 1030.35 1030.20 1029.88 1029.56 1029.41 1029.03 1028.57 1028.10 1027.58 1026.91 1026.17 1025.42 1024.64 1024.05 1023.52 1022.74 1021.99 1021.45 1020.47 1019.80 1019.32 1018.79 1018.22 1017.76 1017.24 1016.77
1025.04 1025.70 1026.18 1026.48 1026.76 1027.17 1027.67 1028.06 1028.44 1028.80 1029.32 1029.77 1030.17 1030.41 1030.55 1030.64 1030.63 1030.59 1030.55 1030.43 1030.16 1029.93 1029.88 1029.52 1029.03 1028.49 1027.82 1027.17 1026.50 1025.60 1024.93 1024.36 1023.70 1022.89 1022.24 1021.65 1021.23 1020.87 1020.54 1020.07 1019.56 1018.95 1018.25 1018.08
1024.54 1025.33 1025.71 1026.00 1026.28 1026.67 1027.19 1027.73 1028.26 1028.73 1029.27 1029.79 1030.27 1030.65 1030.78 1030.80 1030.81 1030.80 1030.70 1030.66 1030.56 1030.39 1030.29 1029.94 1029.53 1028.96 1028.27 1027.62 1026.83 1026.08 1025.34 1024.64 1023.99 1023.23 1022.81 1022.48 1022.08 1021.70 1021.30 1020.81 1020.40 1019.93 1019.43 1019.08
1023.05 1023.48 1024.23 1024.79 1025.56 1026.26 1026.96 1027.54 1028.05 1028.60 1029.20 1029.74 1030.28 1030.54 1030.76 1030.93 1031.00 1031.00 1031.01 1030.98 1030.78 1030.49 1030.42 1030.15 1029.84 1029.31 1028.74 1028.20 1027.43 1026.57 1025.85 1025.19 1024.63 1024.23 1023.86 1023.44 1023.07 1022.63 1022.19 1021.77 1021.38 1020.98 1020.34 1019.69
1022.69 1023.20 1023.79 1024.39 1025.03 1025.78 1026.57 1027.30 1027.95 1028.55 1029.25 1029.76 1030.25 1030.75 1030.86 1031.12 1031.21 1031.17 1031.10 1031.22 1031.02 1030.59 1030.51 1030.22 1030.00 1029.46 1028.98 1028.75 1028.11 1027.22 1026.56 1025.92 1025.35 1024.92 1024.59 1024.29 1023.81 1023.44 1023.07 1022.68 1022.18 1021.86 1021.41 1020.81
1022.25 1022.76 1023.32 1023.97 1024.66 1025.33 1026.20 1027.02 1027.76 1028.38 1028.96 1029.56 1030.36 1030.98 1031.16 1031.38 1031.48 1031.48 1031.16 1030.93 1030.90 1030.97 1030.77 1030.47 1030.05 1029.58 1029.18 1028.80 1028.55 1027.83 1027.30 1026.72 1026.17 1025.76 1025.52 1024.94 1024.62 1024.18 1023.91 1023.66 1023.28 1022.80 1022.48 1021.96
1021.56 1022.23 1022.86 1023.58 1024.30 1025.03 1025.70 1026.55 1027.29 1027.94 1028.59 1029.23 1029.82 1030.49 1030.88 1030.99 1031.26 1031.18 1031.09 1030.87 1030.86 1030.89 1030.79 1030.55 1030.25 1029.82 1029.25 1029.20 1028.54 1028.17 1027.80 1027.36 1026.90 1026.50 1026.12 1025.76 1025.44 1025.05 1024.67 1024.31 1023.99 1023.59 1023.27 1022.95
1020.94 1021.64 1022.41 1023.14 1023.85 1024.52 1025.16 1025.85 1026.66 1027.46 1028.19 1028.78 1029.40 1029.84 1030.36 1030.48 1030.62 1030.85 1030.77 1030.56 1030.56 1030.83 1030.60 1030.41 1030.27 1030.37 1029.82 1029.43 1028.65 1028.35 1028.05 1027.70 1027.30 1026.95 1026.65 1026.42 1026.08 1025.76 1025.34 1024.95 1024.57 1024.20 1023.84 1023.48
1020.15 1020.79 1021.65 1022.56 1023.19 1023.85 1024.76 1025.45 1026.12 1026.81 1027.49 1028.11 1028.77 1029.18 1029.28 1029.37 1029.63 1029.80 1030.02 1030.11 1030.28 1030.39 1030.36 1030.30 1030.64 1030.51 1030.19 1029.12 1028.87 1028.57 1028.24 1027.95 1027.61 1027.27 1026.94 1026.65 1026.26 1025.99 1025.53 1025.20 1024.94 1024.45 1024.07 1023.62
1019.40 1020.15 1020.82 1021.76 1022.76 1023.67 1024.29 1024.83 1025.48 1026.06 1026.62 1027.24 1027.71 1028.17 1028.64 1028.92 1029.18 1029.37 1029.56 1029.95 1030.10 1030.18 1030.05 1030.19 1030.35 1030.53 1030.37 1029.31 1029.03 1028.73 1028.36 1027.98 1027.64 1027.35 1026.96 1026.69 1026.24 1025.98 1025.62 1025.34 1024.87 1024.44 1024.09 1023.64
1018.65 1019.34 1020.16 1021.08 1021.99 1022.50 1023.18 1023.95 1024.87 1025.48 1026.00 1026.49 1026.98 1027.44 1027.77 1028.15 1028.45 1028.72 1029.13 1029.43 1029.75 1029.75 1029.62 1029.90 1030.21 1030.23 1029.63 1029.34 1029.07 1028.78 1028.38 1027.96 1027.58 1027.31 1026.82 1026.42 1026.04 1025.67 1025.26 1024.94 1024.64 1024.21 1023.85 1023.40
1017.83 1018.50 1019.00 1019.50 1020.26 1021.27 1022.12 1023.00 1023.67 1024.44 1025.09 1025.61 1026.06 1026.47 1026.99 1027.44 1027.89 1028.32 1028.65 1029.02 1029.29 1029.34 1029.32 1029.41 1029.49 1029.49 1029.22 1029.01 1028.79 1028.50 1028.13 1027.69 1027.34 1026.98 1026.65 1026.13 1025.64 1025.25 1024.87 1024.61 1024.30 1023.89 1023.47 1022.99
1016.95 1017.71 1018.52 1019.17 1019.56 1020.51 1021.30 1021.91 1022.62 1023.26 1023.94 1024.47 1024.97 1025.75 1026.33 1026.92 1027.35 1027.79 1028.14 1028.39 1028.78 1028.94 1029.00 1029.04 1029.02 1028.99 1028.94 1028.87 1028.49 1028.14 1027.83 1027.40 1027.12 1026.86 1026.45 1025.92 1025.49 1025.05 1024.71 1024.38 1024.04 1023.62 1023.10 1022.58
Thickness
5342 5333 5315 5285 5279 5272 5253 5241 5254 5260 5241 5252 5250 5240 5240 5239 5245 5246 5255 5263 5271 5277 5284 5290 5295 5301 5308 5318 5334 5351 5369 5384 5401 5420 5437 5454 5470 5485 5499 5513 5531 5546 5559 5563
5350 5339 5315 5301 5290 5277 5266 5233 5220 5229 5240 5256 5251 5251 5242 5244 5243 5240 5244 5252 5261 5270 5277 5284 5289 5295 5302 5310 5323 5339 5355 5370 5386 5404 5424 5439 5453 5470 5486 5503 5517 5533 5545 5556
5344 5318 5302 5301 5303 5285 5273 5259 5248 5252 5264 5245 5250 5252 5246 5243 5241 5240 5240 5244 5253 5263 5272 5278 5284 5290 5297 5305 5318 5331 5342 5355 5370 5387 5407 5423 5437 5453 5470 5488 5504 5519 5530 5542
5347 5326 5303 5321 5305 5291 5278 5284 5259 5255 5249 5246 5245 5246 5247 5248 5244 5244 5242 5242 5247 5256 5265 5273 5280 5286 5292 5300 5308 5320 5332 5343 5355 5371 5390 5406 5419 5435 5452 5470 5486 5503 5515 5525
5335 5328 5336 5328 5314 5299 5285 5291 5288 5276 5267 5258 5255 5252 5258 5254 5250 5247 5245 5244 5245 5250 5257 5267 5275 5281 5288 5296 5303 5311 5320 5334 5346 5356 5372 5388 5401 5416 5433 5452 5470 5484 5496 5507
5333 5322 5313 5327 5317 5306 5297 5294 5293 5280 5273 5264 5252 5254 5258 5253 5248 5247 5247 5245 5244 5246 5252 5260 5269 5276 5283 5290 5296 5303 5312 5323 5334 5345 5358 5373 5383 5397 5417 5434 5452 5463 5477 5487
5345 5331 5332 5331 5322 5311 5297 5302 5298 5285 5277 5264 5254 5251 5252 5252 5251 5248 5246 5245 5243 5245 5248 5254 5262 5269 5277 5284 5290 5298 5306 5315 5326 5338 5348 5360 5371 5383 5401 5416 5432 5446 5457 5469
5340 5320 5327 5336 5326 5311 5321 5315 5304 5294 5284 5274 5264 5257 5252 5251 5250 5247 5245 5244 5244 5244 5245 5248 5254 5262 5270 5279 5286 5294 5303 5312 5321 5330 5341 5353 5365 5373 5387 5400 5413 5427 5438 5450
5361 5369 5358 5347 5341 5337 5328 5318 5313 5301 5292 5283 5274 5266 5257 5251 5248 5246 5244 5243 5243 5243 5243 5245 5249 5256 5263 5271 5280 5290 5300 5308 5316 5325 5335 5345 5357 5364 5373 5385 5394 5407 5420 5433
5369 5384 5367 5358 5348 5339 5333 5325 5318 5309 5298 5287 5277 5270 5262 5254 5248 5245 5244 5243 5242 5242 5243 5244 5245 5250 5257 5265 5273 5281 5290 5300 5307 5315 5324 5334 5343 5353 5357 5368 5380 5392 5408 5419
5385 5383 5372 5365 5356 5343 5335 5328 5322 5314 5304 5292 5280 5273 5264 5258 5250 5245 5242 5240 5238 5239 5239 5240 5241 5244 5248 5255 5264 5273 5281 5289 5298 5304 5312 5320 5328 5333 5340 5352 5361 5379 5389 5398
5405 5398 5386 5372 5358 5348 5341 5334 5326 5316 5308 5297 5285 5277 5268 5261 5254 5248 5242 5239 5236 5235 5235 5235 5237 5239 5241 5245 5252 5262 5271 5279 5286 5291 5301 5308 5315 5324 5330 5338 5350 5361 5369 5376
5412 5397 5385 5373 5360 5352 5345 5336 5326 5317 5307 5299 5291 5281 5272 5265 5258 5252 5246 5242 5238 5234 5230 5229 5231 5233 5234 5237 5244 5251 5258 5266 5274 5282 5288 5296 5305 5314 5325 5333 5339 5345 5353 5363
5403 5393 5382 5372 5366 5355 5346 5337 5325 5315 5307 5299 5292 5285 5278 5270 5262 5256 5250 5245 5240 5236 5231 5229 5228 5228 5228 5231 5237 5241 5247 5254 5262 5270 5276 5284 5294 5302 5309 5316 5324 5331 5337 5342
5404 5396 5391 5377 5364 5354 5344 5335 5328 5317 5308 5300 5291 5285 5279 5273 5265 5258 5252 5247 5243 5239 5232 5229 5227 5226 5226 5228 5231 5236 5240 5244 5248 5255 5263 5269 5278 5286 5291 5297 5302 5307 5313 5318
5408 5396 5384 5375 5367 5356 5345 5336 5329 5318 5308 5299 5291 5284 5278 5272 5267 5261 5254 5248 5243 5239 5233 5229 5227 5225 5225 5225 5226 5230 5232 5235 5238 5244 5248 5253 5258 5261 5265 5269 5275 5282 5290 5292
5407 5392 5383 5374 5366 5357 5347 5339 5329 5318 5308 5299 5290 5283 5277 5272 5267 5260 5255 5249 5244 5239 5233 5231 5228 5226 5225 5224 5224 5224 5224 5225 5227 5232 5234 5235 5238 5241 5245 5250 5254 5259 5264 5269
5419 5409 5395 5384 5371 5358 5345 5337 5327 5318 5308 5298 5289 5283 5276 5270 5264 5259 5254 5248 5243 5240 5235 5232 5228 5226 5224 5222 5222 5222 5221 5220 5218 5216 5216 5217 5219 5221 5224 5227 5231 5234 5239 5247
5415 5403 5391 5381 5370 5358 5346 5335 5324 5315 5305 5296 5288 5277 5274 5267 5262 5258 5253 5245 5240 5239 5235 5232 5228 5226 5224 5220 5219 5219 5217 5215 5213 5211 5208 5205 5204 5204 5205 5206 5209 5211 5214 5219
5411 5401 5390 5378 5365 5355 5342 5331 5320 5311 5303 5295 5281 5271 5268 5261 5255 5251 5252 5248 5243 5237 5233 5230 5228 5225 5222 5219 5215 5214 5211 5209 5207 5204 5199 5197 5193 5191 5188 5185 5185 5187 5188 5192
5410 5398 5387 5374 5362 5351 5341 5329 5318 5309 5300 5293 5285 5273 5265 5262 5254 5251 5250 5248 5242 5237 5232 5229 5225 5223 5221 5216 5214 5210 5206 5202 5199 5196 5192 5188 5183 5178 5174 5170 5166 5164 5164 5165
5408 5395 5383 5371 5359 5348 5339 5329 5318 5307 5297 5289 5279 5272 5264 5261 5256 5251 5248 5246 5242 5234 5231 5227 5223 5218 5216 5213 5211 5206 5201 5197 5193 5189 5183 5178 5172 5166 5162 5156 5151 5148 5145 5144
5406 5395 5381 5367 5356 5346 5335 5325 5316 5306 5296 5286 5276 5272 5269 5265 5260 5255 5250 5245 5240 5234 5230 5226 5218 5214 5211 5210 5206 5202 5196 5191 5186 5181 5176 5170 5164 5157 5151 5145 5139 5136 5132 5130
5401 5391 5379 5366 5352 5339 5329 5321 5312 5304 5296 5287 5280 5274 5268 5262 5257 5252 5248 5241 5236 5231 5229 5223 5217 5211 5206 5205 5200 5196 5191 5186 5181 5174 5168 5160 5154 5146 5139 5132 5128 5123 5119 5115
5397 5387 5375 5360 5347 5339 5331 5320 5308 5300 5292 5285 5278 5271 5266 5261 5256 5251 5245 5239 5233 5230 5227 5221 5215 5209 5206 5201 5196 5191 5186 5180 5174 5167 5161 5154 5146 5138 5129 5121 5114 5110 5103 5096
5392 5382 5374 5365 5354 5341 5329 5318 5308 5298 5290 5283 5276 5269 5263 5257 5252 5246 5241 5236 5231 5228 5225 5220 5214 5209 5204 5199 5194 5188 5182 5177 5170 5162 5154 5147 5137 5129 5119 5109 5101 5091 5082 5075
5389 5377 5367 5357 5350 5336 5326 5317 5307 5297 5289 5283 5276 5267 5260 5253 5248 5243 5238 5234 5228 5225 5221 5216 5212 5207 5201 5195 5190 5185 5179 5172 5165 5156 5147 5138 5127 5117 5105 5095 5084 5073 5063 5056